Location: Lecco
(45.8566°N, 9.3977°E)
Time: 07:18:04
(UTC+02:00)

ISS - Pass Details

Date: 14 July 2018
Orbit: 402 x 408 km, 51.6° (Epoch: 18 July)

Event Time Altitude Azimuth Distance (km) Brightness Sun altitude
Exits shadow 02:40:22 36° 298° (WNW) 666 -2.7 -20.5°
Maximum altitude 02:41:12 45° 341° (NNW) 563 -2.8 -20.4°
Drops below altitude 10° 02:44:24 10° 56° (NE) 1,471 -0.3 -20.3°
Sets 02:46:32 0° 63° (ENE) 2,335 0.7 -20.1°
